This is the latest recevied weather packets stored in our database for station/object SR5MRF. If no packets are shown the sender has not sent any weather packets the latest 10 day(s).
| Time | Temp. | Humidity | Pressure | Rain* | Wind** | Luminosity | Snow |
|---|---|---|---|---|---|---|---|
| 1777640929 | 20.56° C | 36% | 1022.5 hPa | 0 mm | - | - | - |
| 1777640688 | 20° C | 36% | 1022.4 hPa | 0 mm | - | - | - |
| 1777640330 | 20.56° C | 36% | 1022.6 hPa | 0 mm | - | - | - |
| 1777640268 | 20.56° C | 36% | 1022.6 hPa | 0 mm | - | - | - |
| 1777639848 | 20.56° C | 36% | 1022.5 hPa | 0 mm | - | - | - |
| 1777639429 | 20.56° C | 35% | 1022.7 hPa | 0 mm | - | - | - |
| 1777639130 | 20.56° C | 35% | 1022.8 hPa | 0 mm | - | - | - |
| 1777639008 | 20.56° C | 35% | 1022.9 hPa | 0 mm | - | - | - |
| 1777638588 | 20.56° C | 35% | 1022.9 hPa | 0 mm | - | - | - |
| 1777638169 | 21.11° C | 35% | 1023 hPa | 0 mm | - | - | - |
| 1777637748 | 21.11° C | 34% | 1023 hPa | 0 mm | - | - | - |
| 1777637328 | 21.11° C | 34% | 1023 hPa | 0 mm | - | - | - |
| 1777636909 | 21.67° C | 34% | 1023 hPa | 0 mm | - | - | - |
| 1777636489 | 21.67° C | 33% | 1023 hPa | 0 mm | - | - | - |
| 1777636129 | 21.67° C | 33% | 1023 hPa | 0 mm | - | - | - |
| 1777636069 | 22.22° C | 33% | 1023 hPa | 0 mm | - | - | - |
| 1777635648 | 22.22° C | 33% | 1023.2 hPa | 0 mm | - | - | - |
| 1777635229 | 22.78° C | 33% | 1023.2 hPa | 0 mm | - | - | - |
| 1777634930 | 22.78° C | 33% | 1023.1 hPa | 0 mm | - | - | - |
| 1777634809 | 22.78° C | 33% | 1023.1 hPa | 0 mm | - | - | - |
| 1777634389 | 22.78° C | 33% | 1023.1 hPa | 0 mm | - | - | - |
| 1777634330 | 22.78° C | 33% | 1023.2 hPa | 0 mm | - | - | - |
| 1777633969 | 22.78° C | 32% | 1023.1 hPa | 0 mm | - | - | - |
| 1777633549 | 23.33° C | 32% | 1023.4 hPa | 0 mm | - | - | - |
| 1777633129 | 23.89° C | 32% | 1023.3 hPa | 0 mm | - | - | - |
* Rain latest hour (hover to see other rain measurements)
** Current wind speed in m/s (hover to see current wind gust speed)